Location: Berbisdorf
(50.7638°N, 12.9442°E)
Time: 23:20:46
(UTC+00:00)

ARIANE 5 R/B - Pass Details

Date: 07 June 2020
Orbit: 748 x 796 km, 98.6° (Epoch: 05 July)

Event Time Altitude Azimuth Distance (km) Brightness Sun altitude
Rises 01:11:44 0° 22° (NNE) 3,224 7.8 -11.5°
Reaches altitude 10° 01:14:19 10° 33° (NNE) 2,289 6.5 -11.3°
Maximum altitude 01:18:43 30° 95° (E) 1,332 4.0 -10.9°
Drops below altitude 10° 01:23:04 10° 156° (SSE) 2,263 4.6 -10.6°
Enters shadow 01:25:03 - 165° (SSE) 2,975 5.1 -10.4°
